| DS18B20 | SHTC3 | ||||||
|---|---|---|---|---|---|---|---|
| ID | Date d/m/Y & Time | data1 สูง | data2 ต่ำ | data3 นอก | temp pcb | hum pcb | Time |
| 10015 | 08/04/2026 18:22:14 | 32.3  | 32.1  | 30.7  | 32.4  | 66.7  | 18:22 |
| 10014 | 08/04/2026 18:17:32 | 32.4  | 32.4  | 30.7  | 32.3  | 66.6  | 18:17 |
| 10013 | 08/04/2026 18:12:49 | 32.4  | 32.4  | 30.9  | 32.3  | 65.4  | 18:12 |
| 10012 | 08/04/2026 18:08:07 | 32.4  | 32.5  | 30.9  | 32.5  | 65.0  | 18:08 |
| 10011 | 08/04/2026 18:03:25 | 32.4  | 32.6  | 30.9  | 32.4  | 64.8  | 18:03 |
| 10010 | 08/04/2026 17:58:43 | 32.5  | 32.6  | 31.0  | 32.5  | 64.6  | 17:58 |
| 10009 | 08/04/2026 17:54:01 | 32.5  | 32.6  | 31.1  | 32.3  | 64.0  | 17:54 |
| 10008 | 08/04/2026 17:49:18 | 32.6  | 32.6  | 31.2  | 32.5  | 63.6  | 17:49 |
| 10007 | 08/04/2026 17:44:36 | 32.6  | 32.6  | 31.1  | 32.5  | 63.3  | 17:44 |
| 10006 | 08/04/2026 17:39:54 | 32.6  | 32.6  | 31.2  | 32.6  | 63.0  | 17:39 |
| 10005 | 08/04/2026 17:35:12 | 32.7  | 32.7  | 31.3  | 32.6  | 62.7  | 17:35 |
| 10004 | 08/04/2026 17:25:33 | 32.8  | 32.9  | 31.7  | 32.6  | 62.1  | 17:25 |
| 10003 | 08/04/2026 17:20:51 | 32.9  | 32.9  | 31.8  | 32.8  | 61.9  | 17:20 |
| 10002 | 08/04/2026 17:16:09 | 32.9  | 32.9  | 31.9  | 32.8  | 62.0  | 17:16 |
| 10001 | 08/04/2026 17:11:27 | 32.9  | 32.9  | 32.1  | 32.8  | 61.7  | 17:11 |
| 10000 | 08/04/2026 17:06:44 | 33.0  | 32.9  | 32.2  | 32.8  | 61.3  | 17:06 |
| 9999 | 08/04/2026 17:02:02 | 33.0  | 32.9  | 32.3  | 33.1  | 61.0  | 17:02 |
| 9998 | 08/04/2026 16:57:20 | 33.1  | 33.0  | 32.4  | 33.0  | 60.4  | 16:57 |
| 9997 | 08/04/2026 16:52:38 | 33.1  | 32.9  | 32.4  | 32.9  | 59.9  | 16:52 |
| 9996 | 08/04/2026 16:47:59 | 33.1  | 33.0  | 32.4  | 33.0  | 59.8  | 16:47 |
| 9995 | 08/04/2026 16:40:08 | 33.2  | 33.2  | 32.7  | 33.0  | 59.9  | 16:40 |
| 9994 | 08/04/2026 16:35:26 | 33.2  | 33.2  | 32.9  | 33.0  | 59.6  | 16:35 |
| 9993 | 08/04/2026 16:30:44 | 33.3  | 33.2  | 32.9  | 33.0  | 59.1  | 16:30 |
| 9992 | 08/04/2026 16:26:03 | 33.3  | 33.2  | 33.0  | 33.0  | 59.0  | 16:26 |